College Station, TX

11:28 PM CDT on April 25, 2017 (GMT -0500)
Easterwood

Weather History for KCLL - December, 2011

Change the Weather History Date:

Wednesday, December 28, 2011

  Actual Average Record
Temperature  
Mean Temperature 50 °F 51 °F  
Max Temperature 65 °F 61 °F 82 °F (2016)
Min Temperature 34 °F 41 °F 20 °F (1924)
Degree Days  
Heating Degree Days 15 15  
Month to date heating degree days 351 367  
Since 1 July heating degree days 556 592  
Cooling Degree Days 0 0  
Month to date cooling degree days 9 13  
Year to date cooling degree days 4044 3086  
Moisture  
Dew Point 39 °F    
Average Humidity 67    
Maximum Humidity 89    
Minimum Humidity 44    
Precipitation  
Precipitation 0.00 in 0.10 in 1.62 in (1962)
Month to date precipitation 3.43 2.93  
Year to date precipitation 19.97 39.76  
Sea Level Pressure  
Sea Level Pressure 30.10 in    
Wind  
Wind Speed 5 mph (SSE)    
Max Wind Speed 17 mph    
Max Gust Speed 22 mph    
Visibility 10 miles    
Events      
T = Trace of Precipitation, MM = Missing Value Source: NWS Daily Summary

Daily Weather History Graph

Daily Weather History Graph

Search for Another Location

Airport or City:

Trip Planner

Search our weather history database for the weather conditions in past years. The results will help you decide how hot, cold, wet, or windy it might be!

Date:

Astronomy

Dec. 28, 2011 Rise Set
Actual Time 7:21 AM CST 5:32 PM CST
Civil Twilight 6:54 AM CST 5:59 PM CST
Nautical Twilight 6:24 AM CST 6:29 PM CST
Astronomical Twilight 5:55 AM CST 6:58 PM CST
Moon 10:04 AM CST (12/28) 9:51 PM CST (12/28)
Length of Visible Light 11h 04m
Length of Day
10h 11m
Waxing Crescent, 18% of the Moon is Illuminated
Dec 28
Waxing Crescent
Jan 1
First Quarter
Jan 9
Full
Jan 16
Last Quarter
Jan 23
New

Hourly Weather History & Observations

Time (CST) Temp. Windchill Dew Point Humidity Pressure Visibility Wind Dir Wind Speed Gust Speed Precip Events Conditions
12:53 AM 37.9 °F - 32.0 °F 79% 30.22 in 10.0 mi Calm Calm - N/A   Clear
1:53 AM 37.4 °F - 32.0 °F 81% 30.20 in 10.0 mi Calm Calm - N/A   Clear
2:53 AM 36.0 °F - 32.0 °F 86% 30.19 in 10.0 mi Calm Calm - N/A   Clear
3:53 AM 35.1 °F - 32.0 °F 89% 30.17 in 10.0 mi Calm Calm - N/A   Clear
4:53 AM 37.0 °F - 33.1 °F 86% 30.15 in 10.0 mi Calm Calm - N/A   Clear
5:53 AM 41.0 °F 39.0 °F 33.1 °F 73% 30.13 in 10.0 mi SE 3.5 mph - N/A   Clear
6:53 AM 41.0 °F 38.0 °F 33.1 °F 73% 30.13 in 10.0 mi SSE 4.6 mph - N/A   Clear
7:53 AM 39.0 °F 35.7 °F 33.1 °F 79% 30.15 in 10.0 mi SE 4.6 mph - N/A   Clear
8:53 AM 45.0 °F 43.5 °F 37.0 °F 74% 30.19 in 10.0 mi ESE 3.5 mph - N/A   Clear
9:53 AM 51.1 °F - 37.0 °F 59% 30.18 in 10.0 mi SSE 12.7 mph - N/A   Clear
10:53 AM 54.0 °F - 37.0 °F 53% 30.15 in 10.0 mi SSE 10.4 mph - N/A   Clear
11:53 AM 57.0 °F - 39.0 °F 51% 30.12 in 10.0 mi SSE 9.2 mph - N/A   Clear
12:53 PM 59.0 °F - 42.1 °F 53% 30.07 in 10.0 mi South 10.4 mph - N/A   Clear
1:53 PM 62.1 °F - 43.0 °F 50% 30.03 in 10.0 mi South 12.7 mph - N/A   Clear
2:53 PM 64.9 °F - 43.0 °F 45% 30.00 in 10.0 mi South 13.8 mph - N/A   Clear
3:53 PM 64.0 °F - 45.0 °F 50% 30.01 in 10.0 mi South 11.5 mph - N/A   Clear
4:53 PM 63.0 °F - 46.0 °F 54% 30.01 in 10.0 mi South 6.9 mph - N/A   Clear
5:53 PM 59.0 °F - 46.0 °F 62% 30.03 in 10.0 mi East 3.5 mph - N/A   Clear
6:53 PM 55.0 °F - 46.0 °F 72% 30.03 in 10.0 mi Calm Calm - N/A   Clear
7:53 PM 54.0 °F - 45.0 °F 72% 30.04 in 10.0 mi Calm Calm - N/A   Clear
8:53 PM 52.0 °F - 45.0 °F 77% 30.04 in 10.0 mi ESE 3.5 mph - N/A   Clear
9:53 PM 52.0 °F - 46.0 °F 80% 30.04 in 10.0 mi East 4.6 mph - N/A   Clear
10:53 PM 48.9 °F - 45.0 °F 86% 30.05 in 10.0 mi West 5.8 mph - N/A   Clear
11:53 PM 46.0 °F - 43.0 °F 89% 30.04 in 10.0 mi Calm Calm - N/A   Clear